This is the latest recevied weather packets stored in our database for station/object SV9TNF-55. If no packets are shown the sender has not sent any weather packets the latest 10 day(s).
| Time | Temp. | Humidity | Pressure | Rain* | Wind** | Luminosity | Snow |
|---|---|---|---|---|---|---|---|
| 1788438473 | 25° C | 36% | 1012.1 hPa | 0 mm | 2.24 m/s, 315° | - | - |
| 1788437873 | 25° C | 42% | 1012.2 hPa | 0 mm | 3.13 m/s, 337° | - | - |
| 1788437273 | 25° C | 42% | 1012.4 hPa | 0 mm | 3.13 m/s, 337° | - | - |
| 1788436672 | 24.44° C | 49% | 1012.5 hPa | 0 mm | 3.58 m/s, 337° | - | - |
| 1788436073 | 25° C | 39% | 1012.3 hPa | 0 mm | 3.58 m/s, 337° | - | - |
| 1788434872 | 25° C | 39% | 1012.4 hPa | 0 mm | 3.13 m/s, 292° | - | - |
| 1788434272 | 25.56° C | 39% | 1012.5 hPa | 0 mm | 2.68 m/s, 315° | - | - |
| 1788433672 | 25° C | 42% | 1012.6 hPa | 0 mm | 2.68 m/s, 315° | - | - |
| 1788433072 | 24.44° C | 48% | 1012.7 hPa | 0 mm | 3.13 m/s, 315° | - | - |
| 1788432472 | 25° C | 46% | 1012.7 hPa | 0 mm | 3.13 m/s, 337° | - | - |
| 1788431872 | 24.44° C | 50% | 1012.7 hPa | 0 mm | 3.13 m/s, 337° | - | - |
| 1788431271 | 25.56° C | 43% | 1012.8 hPa | 0 mm | 2.24 m/s, 337° | - | - |
| 1788430672 | 25° C | 44% | 1012.8 hPa | 0 mm | 2.68 m/s, 337° | - | - |
| 1788430072 | 25.56° C | 42% | 1012.8 hPa | 0 mm | 1.79 m/s, 292° | - | - |
| 1788429471 | 24.44° C | 47% | 1012.9 hPa | 0 mm | 2.24 m/s, 337° | - | - |
| 1788428872 | 25° C | 43% | 1012.9 hPa | 0 mm | 2.24 m/s, 315° | - | - |
| 1788428271 | 25° C | 41% | 1012.8 hPa | 0 mm | 1.79 m/s, 337° | - | - |
| 1788427671 | 24.44° C | 44% | 1013.1 hPa | 0 mm | 2.68 m/s, 337° | - | - |
| 1788427071 | 23.89° C | 45% | 1013.1 hPa | 0 mm | 3.13 m/s, 337° | - | - |
| 1788426471 | 23.89° C | 44% | 1013.3 hPa | 0 mm | 2.68 m/s, 337° | - | - |
| 1788425871 | 23.89° C | 41% | 1013.4 hPa | 0 mm | 3.13 m/s, 337° | - | - |
| 1788425278 | 23.33° C | 47% | 1013.4 hPa | 0 mm | 3.13 m/s, 337° | - | - |
| 1788424670 | 23.33° C | 47% | 1013.4 hPa | 0 mm | 3.13 m/s, 337° | - | - |
| 1788424070 | 23.33° C | 45% | 1013.3 hPa | 0 mm | 2.24 m/s, 337° | - | - |
| 1788423495 | 24.44° C | 39% | 1013.3 hPa | 0 mm | 2.24 m/s, 270° | - | - |
* Rain latest hour (hover to see other rain measurements)
** Current wind speed in m/s (hover to see current wind gust speed)